| Date | Time | Temp. (oF) | Dew Point (oF) | Rel. Hum. (%) | Press. (in.) | Wind Dir. | Wind Speed (mph) | Hourly Rainfall (in.) |
|
|---|---|---|---|---|---|---|---|---|---|
| 1 | miss | miss | miss | miss | miss | miss | miss | miss | |
| 2 | 03/14 | 23:00 | 46 | 42 | 88 | 29.60 | NE | 11 | 0.00 |
| 3 | 03/14 | 22:00 | 47 | 44 | 91 | 29.60 | NNE | 5 | 0.00 |
| 4 | 03/14 | 21:00 | 47 | 45 | 94 | 29.60 | NNE | 8 | 0.00 |
| 5 | 03/14 | 20:00 | 48 | 46 | 96 | 29.59 | NE | 8 | 0.00 |
| 6 | 03/14 | 19:00 | 48 | 47 | 99 | 29.57 | NE | 9 | 0.00 |
| 7 | 03/14 | 18:00 | 49 | 47 | 96 | 29.56 | NNE | 7 | 0.00 |
| 8 | 03/14 | 17:00 | 50 | 48 | 95 | 29.54 | NNE | 6 | 0.00 |
| 9 | 03/14 | 16:00 | 50 | 48 | 96 | 29.53 | NE | 3 | 0.00 |
| 10 | 03/14 | 15:00 | 50 | 49 | 98 | 29.52 | NNE | 6 | 0.01 |
| 11 | 03/14 | 14:00 | 48 | 48 | 100 | 29.52 | NE | 0 | 0.00 |
| 12 | 03/14 | 13:00 | 48 | 48 | 100 | 29.50 | NNE | 0 | 0.03 |
| 13 | 03/14 | 12:00 | 47 | 46 | 100 | 29.52 | NNE | 0 | 0.06 |
| 14 | 03/14 | 11:00 | 46 | 45 | 100 | 29.51 | NE | 0 | 0.00 |
| 15 | 03/14 | 10:00 | 46 | 45 | 100 | 29.50 | NE | 0 | 0.00 |
| 16 | 03/14 | 09:00 | 46 | 45 | 100 | 29.49 | E | 5 | 0.00 |
| 17 | 03/14 | 08:00 | 46 | 45 | 100 | 29.46 | NE | 6 | 0.00 |
| 18 | 03/14 | 07:00 | 45 | 45 | 100 | 29.45 | NE | 8 | 0.00 |
| 19 | 03/14 | 06:00 | 45 | 45 | 100 | 29.44 | ENE | 0 | 0.03 |
| 20 | 03/14 | 05:00 | 46 | 45 | 100 | 29.44 | ESE | 0 | 0.00 |
| 21 | 03/14 | 04:00 | 45 | 45 | 100 | 29.42 | ESE | 6 | 0.00 |
| 22 | 03/14 | 03:00 | 46 | 45 | 100 | 29.42 | E | 2 | 0.01 |
| 23 | 03/14 | 02:00 | 46 | 45 | 100 | 29.42 | E | 10 | 0.00 |
| 24 | 03/14 | 01:00 | 46 | 45 | 100 | 29.42 | E | 8 | 0.01 |